Location: Chapel Hill
(35.9134°N, 79.0560°W)
Time: 04:03:31
(UTC-04:00)

ACS3 Solar Sail - Pass Details

Date: 28 May 2026
Orbit: 877 x 953 km, 97.2° (Epoch: 8 June)

Event Time Altitude Azimuth Distance (km) Brightness Sun altitude
Rises 02:29:19 0° 2° (N) 3,480 5.7 -29.9°
Reaches altitude 10° 02:31:49 10° 356° (N) 2,541 4.7 -29.7°
Enters shadow 02:36:43 41° 297° (WNW) 1,261 2.3 -29.3°
